Location: Sternwarte_Laufen
(47.9344°N, 12.9346°E)
Time: 01:22:15
(UTC+02:00)

ISS - Pass Details

Date: 12 July 2018
Orbit: 402 x 408 km, 51.6° (Epoch: 18 July)

Event Time Altitude Azimuth Distance (km) Brightness Sun altitude
Exits shadow 02:48:33 43° 244° (WSW) 587 -3.4 -16.9°
Maximum altitude 02:49:32 88° 157° (SSE) 412 -3.9 -16.8°
Drops below altitude 10° 02:52:50 10° 67° (ENE) 1,473 -0.3 -16.6°
Sets 02:54:56 0° 67° (ENE) 2,337 0.8 -16.5°
